• In Russia
  • List of Countries
  • For 7 days
  • Water Temperature
  • Weather Map
  • Weather Widgets
  • user-avatar
    Login

    Hourly Weather Abovyan

    Today, 29 January, Wednesday

    Time Temperature Precipitation Wind Pressure Humidity
    00:00 0°C° 0 mm 1 mps 670 mmHg 51%
    01:00 0°C° 0 mm 1 mps 670 mmHg 52%
    02:00 -1°C° 0 mm 1 mps 670 mmHg 54%
    03:00 -1°C° 0 mm 1 mps 670 mmHg 55%
    04:00 -1°C° 0 mm 1 mps 669 mmHg 56%
    05:00 -2°C° 0 mm 1 mps 669 mmHg 56%
    06:00 -2°C° 0 mm 1 mps 669 mmHg 56%
    07:00 -1°C° 0 mm 1 mps 669 mmHg 54%
    08:00 0°C° 0 mm 1 mps 669 mmHg 52%
    09:00 +1°C° 0 mm 1 mps 670 mmHg 50%
    10:00 +2°C° 0 mm 1 mps 670 mmHg 49%
    11:00 +3°C° 0 mm 1 mps 669 mmHg 47%
    12:00 +4°C° 0 mm 1 mps 669 mmHg 46%
    13:00 +4°C° 0 mm 1 mps 669 mmHg 47%
    14:00 +4°C° 0 mm 1 mps 669 mmHg 48%
    15:00 +4°C° 0 mm 1 mps 668 mmHg 48%
    16:00 +3°C° 0 mm 1 mps 668 mmHg 51%
    17:00 +2°C° 0 mm 1 mps 669 mmHg 53%
    18:00 +1°C° 0 mm 1 mps 669 mmHg 56%
    19:00 0°C° 0 mm 1 mps 669 mmHg 56%
    20:00 0°C° 0 mm 1 mps 669 mmHg 57%
    21:00 -1°C° 0 mm 1 mps 669 mmHg 58%
    22:00 -1°C° 0 mm 1 mps 670 mmHg 59%
    23:00 -1°C° 0 mm 1 mps 670 mmHg 59%

    Tomorrow, 30 January, Thursday

    Time Temperature Precipitation Wind Pressure Humidity
    00:00 -2°C° 0 mm 1 mps 670 mmHg 60%
    01:00 -2°C° 0 mm 1 mps 670 mmHg 62%
    02:00 -2°C° 0 mm 1 mps 670 mmHg 64%
    03:00 -2°C° 0 mm 1 mps 670 mmHg 66%
    04:00 -2°C° 0 mm 1 mps 670 mmHg 68%
    05:00 -3°C° 0 mm 1 mps 670 mmHg 69%
    06:00 -3°C° 0 mm 1 mps 670 mmHg 71%
    07:00 -2°C° 0 mm 1 mps 671 mmHg 68%
    08:00 -1°C° 0 mm 1 mps 671 mmHg 65%
    09:00 +1°C° 0 mm 1 mps 672 mmHg 61%
    10:00 +1°C° 0 mm 1 mps 671 mmHg 60%
    11:00 +2°C° 0 mm 1 mps 671 mmHg 59%
    12:00 +3°C° 0 mm 1 mps 670 mmHg 57%
    13:00 +4°C° 0 mm 1 mps 670 mmHg 57%
    14:00 +4°C° 0 mm 1 mps 669 mmHg 56%
    15:00 +4°C° 0 mm 1 mps 669 mmHg 56%
    16:00 +3°C° 0 mm 1 mps 669 mmHg 58%
    17:00 +1°C° 0 mm 2 mps 669 mmHg 60%
    18:00 +1°C° 0 mm 2 mps 669 mmHg 62%
    19:00 -1°C° 0 mm 2 mps 669 mmHg 62%
    20:00 -1°C° 0 mm 2 mps 669 mmHg 63%
    21:00 -1°C° 0 mm 2 mps 669 mmHg 63%
    22:00 -1°C° 0 mm 2 mps 669 mmHg 64%
    23:00 -1°C° 0 mm 2 mps 668 mmHg 65%

    Day after tomorrow, 31 January, Friday

    Time Temperature Precipitation Wind Pressure Humidity
    00:00 -1°C° 0 mm 2 mps 668 mmHg 66%
    01:00 -1°C° 0 mm 2 mps 667 mmHg 67%
    02:00 -1°C° 0 mm 2 mps 667 mmHg 67%
    03:00 -1°C° 0 mm 2 mps 667 mmHg 68%
    04:00 -1°C° 0 mm 2 mps 666 mmHg 70%
    05:00 -2°C° 0 mm 2 mps 666 mmHg 72%
    06:00 -2°C° 0 mm 2 mps 665 mmHg 74%
    07:00 -1°C° 0 mm 2 mps 665 mmHg 71%
    08:00 +1°C° 0 mm 2 mps 665 mmHg 69%
    09:00 +1°C° 0 mm 2 mps 665 mmHg 67%
    10:00 +1°C° 0 mm 3 mps 665 mmHg 65%
    11:00 +2°C° 0 mm 3 mps 664 mmHg 64%
    12:00 +3°C° 0 mm 3 mps 664 mmHg 63%
    13:00 +3°C° 0.1 mm 3 mps 663 mmHg 63%
    14:00 +3°C° 0.1 mm 3 mps 662 mmHg 63%
    15:00 +3°C° 0.1 mm 3 mps 662 mmHg 63%
    16:00 +2°C° 0.4 mm 3 mps 662 mmHg 68%
    17:00 +2°C° 0.4 mm 3 mps 662 mmHg 73%
    18:00 +1°C° 0.4 mm 3 mps 662 mmHg 78%
    19:00 +1°C° 0.6 mm 3 mps 662 mmHg 80%
    20:00 +1°C° 0.6 mm 3 mps 662 mmHg 82%
    21:00 +1°C° 0.6 mm 2 mps 663 mmHg 84%
    22:00 0°C° 0.5 mm 3 mps 663 mmHg 84%
    23:00 -1°C° 0.5 mm 3 mps 662 mmHg 84%

    1 February, Saturday

    Time Temperature Precipitation Wind Pressure Humidity
    00:00 -1°C° 0.5 mm 3 mps 662 mmHg 85%
    01:00 -2°C° 0.4 mm 3 mps 662 mmHg 83%
    02:00 -2°C° 0.4 mm 3 mps 663 mmHg 82%
    03:00 -2°C° 0.4 mm 3 mps 663 mmHg 81%
    04:00 -3°C° 0.1 mm 2 mps 663 mmHg 79%
    05:00 -3°C° 0.1 mm 2 mps 663 mmHg 77%
    06:00 -4°C° 0.1 mm 2 mps 664 mmHg 75%
    07:00 -3°C° 0 mm 2 mps 664 mmHg 72%
    08:00 -3°C° 0 mm 2 mps 665 mmHg 70%
    09:00 -3°C° 0 mm 2 mps 666 mmHg 67%
    10:00 -2°C° 0 mm 2 mps 666 mmHg 64%
    11:00 -1°C° 0 mm 2 mps 666 mmHg 61%
    12:00 +1°C° 0 mm 2 mps 666 mmHg 58%
    13:00 +1°C° 0 mm 2 mps 666 mmHg 56%
    14:00 +1°C° 0 mm 2 mps 666 mmHg 54%
    15:00 +3°C° 0 mm 1 mps 666 mmHg 52%
    16:00 +1°C° 0 mm 1 mps 667 mmHg 53%
    17:00 0°C° 0 mm 1 mps 667 mmHg 54%
    18:00 -2°C° 0 mm 1 mps 668 mmHg 55%
    19:00 -2°C° 0 mm 1 mps 668 mmHg 55%
    20:00 -3°C° 0 mm 1 mps 668 mmHg 54%
    21:00 -3°C° 0 mm 1 mps 669 mmHg 54%
    22:00 -4°C° 0 mm 1 mps 669 mmHg 55%
    23:00 -4°C° 0 mm 1 mps 669 mmHg 55%

    2 February, Sunday

    Time Temperature Precipitation Wind Pressure Humidity
    00:00 -4°C° 0 mm 1 mps 669 mmHg 56%
    01:00 -4°C° 0 mm 1 mps 670 mmHg 57%
    02:00 -4°C° 0 mm 1 mps 670 mmHg 58%
    03:00 -4°C° 0 mm 1 mps 670 mmHg 59%
    04:00 -4°C° 0 mm 1 mps 670 mmHg 59%
    05:00 -6°C° 0 mm 1 mps 670 mmHg 60%
    06:00 -6°C° 0 mm 1 mps 670 mmHg 60%
    07:00 -4°C° 0 mm 1 mps 671 mmHg 59%
    08:00 -3°C° 0 mm 1 mps 671 mmHg 57%
    09:00 -2°C° 0 mm 1 mps 672 mmHg 56%
    10:00 -1°C° 0 mm 1 mps 672 mmHg 54%
    11:00 0°C° 0 mm 1 mps 672 mmHg 52%
    12:00 0°C° 0 mm 1 mps 672 mmHg 51%
    13:00 +1°C° 0 mm 1 mps 672 mmHg 51%
    14:00 0°C° 0 mm 0 mps 672 mmHg 51%
    15:00 0°C° 0 mm 0 mps 671 mmHg 51%
    16:00 0°C° 0 mm 1 mps 672 mmHg 54%
    17:00 -1°C° 0 mm 1 mps 672 mmHg 56%
    18:00 -2°C° 0 mm 1 mps 672 mmHg 58%
    19:00 -3°C° 0 mm 1 mps 672 mmHg 58%
    20:00 -3°C° 0 mm 1 mps 673 mmHg 58%
    21:00 -4°C° 0 mm 1 mps 673 mmHg 58%
    22:00 -4°C° 0 mm 1 mps 673 mmHg 59%
    23:00 -4°C° 0 mm 1 mps 673 mmHg 59%

    3 February, Monday

    Time Temperature Precipitation Wind Pressure Humidity
    00:00 -4°C° 0 mm 1 mps 673 mmHg 60%
    01:00 -4°C° 0 mm 1 mps 673 mmHg 60%
    02:00 -4°C° 0 mm 1 mps 673 mmHg 61%
    03:00 -6°C° 0 mm 1 mps 673 mmHg 61%
    04:00 -6°C° 0 mm 1 mps 673 mmHg 61%
    05:00 -6°C° 0 mm 1 mps 673 mmHg 62%
    06:00 -6°C° 0 mm 1 mps 673 mmHg 62%
    07:00 -4°C° 0 mm 1 mps 673 mmHg 60%
    08:00 -3°C° 0 mm 1 mps 673 mmHg 58%
    09:00 -2°C° 0 mm 1 mps 673 mmHg 56%
    10:00 -1°C° 0 mm 1 mps 673 mmHg 55%
    11:00 0°C° 0 mm 1 mps 672 mmHg 54%
    12:00 0°C° 0 mm 0 mps 672 mmHg 53%
    13:00 +1°C° 0 mm 1 mps 671 mmHg 53%
    14:00 +1°C° 0 mm 1 mps 671 mmHg 53%
    15:00 +1°C° 0 mm 1 mps 671 mmHg 52%
    16:00 0°C° 0 mm 1 mps 670 mmHg 53%
    17:00 -1°C° 0 mm 1 mps 670 mmHg 55%
    18:00 -2°C° 0 mm 1 mps 670 mmHg 56%
    19:00 -2°C° 0 mm 1 mps 670 mmHg 56%
    20:00 -3°C° 0 mm 1 mps 670 mmHg 56%
    21:00 -3°C° 0 mm 1 mps 670 mmHg 57%
    22:00 -3°C° 0 mm 1 mps 669 mmHg 58%
    23:00 -3°C° 0 mm 1 mps 669 mmHg 59%
    Show more